"Timestamp","TZ","WindDir_Mean (deg)","WindSpd_Mean (km/h)","WindSpd_Min (km/h)","WindSpd_Max (km/h)","Temp_Mean (deg)","RH_Mean (%)","MSLP_Mean (hPa)","Rain_Acc (mm)","Rain_Intensity (mm/h)","Hail_Acc (hits/cm2)","Hail_Intensity (hits/cm2hr)","Solar_Mean (W/m2)"
2020/04/07 00:00:00.014,n,207,1.44,1.44,1.8,21,68.3,1017.62,0,0,0,0,0.029602
2020/04/07 00:01:00.000,n,32,0.72,0.36,1.44,21,67.7,1017.62,0,0,0,0,0.032234
2020/04/07 00:02:00.000,n,269,2.52,1.44,2.88,20.9,67.6,1017.62,0,0,0,0,0.034828
2020/04/07 00:03:00.000,n,258,4.32,2.52,5.04,20.9,67.8,1017.62,0,0,0,0,0.033073
2020/04/07 00:04:00.003,n,220,2.16,1.8,2.88,20.9,67.7,1017.62,0,0,0,0,0.034828
2020/04/07 00:05:00.001,n,248,2.88,2.16,3.6,20.9,68.3,1017.62,0,0,0,0,0.033951
2020/04/07 00:06:00.000,n,246,3.24,2.52,4.32,20.9,68.3,1017.62,0,0,0,0,0.028725
2020/04/07 00:07:00.012,n,244,3.96,3.24,5.04,20.9,68.1,1017.62,0,0,0,0,0.033951
2020/04/07 00:08:00.009,n,264,4.68,4.32,5.4,20.9,68,1017.62,0,0,0,0,0.033951
2020/04/07 00:09:00.006,n,268,5.4,5.04,5.4,20.9,67.9,1017.62,0,0,0,0,0.030479
2020/04/07 00:10:00.000,n,266,2.88,2.52,3.24,20.9,68.1,1017.72,0,0,0,0,0.027885
2020/04/07 00:11:00.000,n,258,5.04,4.68,5.4,20.8,68.3,1017.72,0,0,0,0,0.033073
2020/04/07 00:12:00.000,n,250,1.8,0.72,3.24,20.8,68.4,1017.72,0,0,0,0,0.033073
2020/04/07 00:13:00.000,n,269,3.6,3.24,3.96,20.8,68.4,1017.72,0,0,0,0,0.029602
2020/04/07 00:14:00.008,n,280,2.52,2.52,2.88,20.8,69.5,1017.72,0,0,0,0,0.031357
2020/04/07 00:15:00.005,n,218,2.52,2.16,2.88,20.9,69.1,1017.62,0,0,0,0,0.028725
2020/04/07 00:16:00.003,n,224,3.24,2.16,3.6,20.8,68.6,1017.62,0,0,0,0,0.029602
2020/04/07 00:17:00.000,n,261,3.6,2.52,3.96,20.8,68.6,1017.62,0,0,0,0,0.029602
2020/04/07 00:18:00.012,n,270,2.16,1.08,3.6,20.8,69,1017.62,0,0,0,0,0.033073
2020/04/07 00:19:00.000,n,260,2.52,1.8,3.24,20.8,68.5,1017.62,0,0,0,0,0.027885
2020/04/07 00:20:00.000,n,0,0.72,0,1.08,20.8,69.7,1017.62,0,0,0,0,0.027008
2020/04/07 00:21:00.005,n,324,1.08,0.72,2.88,20.8,69.3,1017.62,0,0,0,0,0.027008
2020/04/07 00:22:00.002,n,265,3.96,2.52,5.04,20.8,69,1017.62,0,0,0,0,0.030479
2020/04/07 00:23:00.000,n,231,2.88,2.52,3.6,20.8,69,1017.62,0,0,0,0,0.026093
2020/04/07 00:24:00.000,n,255,3.6,2.88,4.68,20.8,69.2,1017.62,0,0,0,0,0.026093
2020/04/07 00:25:00.009,n,283,6.84,5.76,7.92,20.8,69.5,1017.62,0,0,0,0,0.027008
2020/04/07 00:26:00.006,n,262,1.08,0.72,2.16,20.8,69.4,1017.62,0,0,0,0,0.023499
2020/04/07 00:27:00.004,n,229,5.76,5.04,6.48,20.8,69.4,1017.62,0,0,0,0,0.026093
2020/04/07 00:28:00.002,n,268,5.04,3.96,6.12,20.7,70,1017.62,0,0,0,0,0.027885
2020/04/07 00:29:00.000,n,290,5.4,4.68,6.12,20.7,69.6,1017.62,0,0,0,0,0.027008
2020/04/07 00:30:00.000,n,278,1.8,0.72,3.24,20.7,69.2,1017.62,0,0,0,0,0.027885
2020/04/07 00:31:00.000,n,254,4.32,2.88,5.04,20.7,69.5,1017.62,0,0,0,0,0.025253
2020/04/07 00:32:00.006,n,196,2.52,2.16,3.6,20.7,69.2,1017.62,0,0,0,0,0.025253
2020/04/07 00:33:00.004,n,232,2.88,2.52,3.24,20.7,69.1,1017.62,0,0,0,0,0.027885
2020/04/07 00:34:00.000,n,156,1.44,1.08,2.16,20.7,69.2,1017.62,0,0,0,0,0.025253
2020/04/07 00:35:00.014,n,195,3.6,3.24,3.96,20.6,69.1,1017.62,0,0,0,0,0.026093
2020/04/07 00:36:00.011,n,249,1.8,1.08,2.52,20.6,69.5,1017.52,0,0,0,0,0.025253
2020/04/07 00:37:00.000,n,265,3.24,3.24,3.6,20.6,69.3,1017.52,0,0,0,0,0.025253
2020/04/07 00:38:00.000,n,133,1.44,0.72,2.16,20.6,68.9,1017.52,0,0,0,0,0.022659
2020/04/07 00:39:00.002,n,235,1.08,0.72,1.44,20.6,68.8,1017.52,0,0,0,0,0.023499
2020/04/07 00:40:00.000,n,227,1.08,0,1.8,20.6,68.6,1017.52,0,0,0,0,0.021782
2020/04/07 00:41:00.000,n,243,0.72,0.36,1.08,20.6,68.3,1017.52,0,0,0,0,0.024376
2020/04/07 00:42:00.009,n,181,6.12,5.04,7.2,20.6,68.2,1017.52,0,0,0,0,0.027008
2020/04/07 00:43:00.006,n,10,0.72,0.36,2.16,20.6,67.9,1017.52,0,0,0,0,0.028725
2020/04/07 00:44:00.000,n,188,3.24,2.88,3.6,20.6,67.8,1017.52,0,0,0,0,0.034828
2020/04/07 00:45:00.013,n,237,3.6,2.52,4.32,20.6,67.8,1017.52,0,0,0,0,0.033073
2020/04/07 00:46:00.000,n,7,1.44,0.72,1.44,20.6,67.7,1017.52,0,0,0,0,0.030479
2020/04/07 00:47:00.000,n,36,0.36,0.36,0.72,20.6,67.8,1017.52,0,0,0,0,0.031357
2020/04/07 00:48:00.000,n,138,1.44,0.72,2.16,20.6,67.5,1017.42,0,0,0,0,0.032234
2020/04/07 00:49:00.005,n,277,2.52,2.16,2.88,20.6,67.5,1017.42,0,0,0,0,0.028725
2020/04/07 00:50:00.003,n,147,4.68,4.32,5.04,20.6,67.4,1017.42,0,0,0,0,0.033951
2020/04/07 00:51:00.000,n,159,2.88,1.44,4.32,20.6,67,1017.42,0,0,0,0,0.030479
2020/04/07 00:52:00.000,n,111,2.52,1.44,3.6,20.6,67.2,1017.42,0,0,0,0,0.029602
2020/04/07 00:53:00.009,n,286,0.72,0.36,1.08,20.6,67.5,1017.42,0,0,0,0,0.032234
2020/04/07 00:54:00.007,n,109,1.8,0.72,3.6,20.6,67,1017.42,0,0,0,0,0.029602
2020/04/07 00:55:00.000,n,177,6.12,5.76,6.84,20.6,67,1017.52,0,0,0,0,0.028725
2020/04/07 00:56:00.001,n,174,3.96,3.24,4.68,20.6,66.699996,1017.52,0,0,0,0,0.033951
2020/04/07 00:57:00.000,n,168,3.6,2.88,4.32,20.6,66.699996,1017.52,0,0,0,0,0.032234
2020/04/07 00:58:00.000,n,153,5.4,4.68,6.12,20.6,66.5,1017.52,0,0,0,0,0.031357
2020/04/07 00:59:00.000,n,137,3.24,1.8,5.04,20.6,66.699996,1017.42,0,0,0,0,0.033951
2020/04/07 01:00:00.006,n,203,2.52,2.16,3.24,20.6,66.5,1017.42,0,0,0,0,0.030479
2020/04/07 01:01:00.003,n,238,2.88,2.52,3.6,20.6,66.9,1017.42,0,0,0,0,0.032234
2020/04/07 01:02:00.001,n,259,2.88,0.36,5.04,20.7,67,1017.42,0,0,0,0,0.031357
2020/04/07 01:03:00.000,n,252,2.16,1.8,2.88,20.7,67,1017.32,0,0,0,0,0.030479
2020/04/07 01:04:00.000,n,151,1.44,1.08,1.8,20.7,66.699996,1017.32,0,0,0,0,0.033951
2020/04/07 01:05:00.000,n,288,0.36,0,1.08,20.7,66.199996,1017.32,0,0,0,0,0.034828
2020/04/07 01:06:00.000,n,179,2.52,0.72,4.32,20.7,66.300004,1017.32,0,0,0,0,0.033073
2020/04/07 01:07:00.003,n,151,5.04,3.96,6.48,20.7,66.6,1017.32,0,0,0,0,0.030479
2020/04/07 01:08:00.001,n,290,3.96,1.44,6.12,20.7,66.199996,1017.32,0,0,0,0,0.031357
2020/04/07 01:09:00.000,n,150,2.88,2.88,3.24,20.7,66.1,1017.32,0,0,0,0,0.030479
2020/04/07 01:10:00.011,n,86,1.08,0.36,2.16,20.6,66.199996,1017.32,0,0,0,0,0.033073
2020/04/07 01:11:00.009,n,226,1.8,0.72,2.52,20.6,66.1,1017.32,0,0,0,0,0.031357
2020/04/07 01:12:00.005,n,249,3.6,3.6,3.6,20.6,66.1,1017.32,0,0,0,0,0.033073
2020/04/07 01:13:00.000,n,136,1.8,0.36,2.88,20.6,65.9,1017.22,0,0,0,0,0.033073
2020/04/07 01:14:00.000,n,126,3.24,2.16,4.32,20.6,66.1,1017.22,0,0,0,0,0.033951
2020/04/07 01:15:00.000,n,213,0.72,0.36,1.08,20.6,66.4,1017.22,0,0,0,0,0.032234
2020/04/07 01:16:00.000,n,180,4.32,3.6,5.04,20.6,66.199996,1017.22,0,0,0,0,0.032234
2020/04/07 01:17:00.007,n,197,2.88,2.52,3.24,20.5,66.1,1017.22,0,0,0,0,0.029602
2020/04/07 01:18:00.005,n,276,3.6,2.52,4.68,20.5,66.1,1017.22,0,0,0,0,0.033951
2020/04/07 01:19:00.002,n,102,0.72,0.36,1.08,20.5,66.699996,1017.22,0,0,0,0,0.029602
2020/04/07 01:20:00.000,n,277,2.88,2.16,3.96,20.5,66.199996,1017.22,0,0,0,0,0.033073
2020/04/07 01:21:00.011,n,141,1.8,1.08,2.52,20.6,66.800004,1017.22,0,0,0,0,0.03746
2020/04/07 01:22:00.000,n,191,2.16,1.44,2.88,20.6,66.4,1017.22,0,0,0,0,0.031357
2020/04/07 01:23:00.000,n,229,2.52,1.8,3.24,20.5,66.199996,1017.22,0,0,0,0,0.036583
2020/04/07 01:24:00.002,n,225,1.44,0.72,2.16,20.5,66.300004,1017.22,0,0,0,0,0.034828
2020/04/07 01:25:00.000,n,175,1.8,1.44,2.16,20.5,66.300004,1017.22,0,0,0,0,0.03746
2020/04/07 01:26:00.000,n,325,0.72,0.36,1.8,20.5,66.4,1017.22,0,0,0,0,0.033951
2020/04/07 01:27:00.010,n,323,1.8,0.72,2.88,20.5,67,1017.22,0,0,0,0,0.029602
2020/04/07 01:28:00.007,n,317,1.8,1.08,2.52,20.5,66.9,1017.22,0,0,0,0,0.032234
2020/04/07 01:29:00.004,n,243,1.08,0.36,2.16,20.5,66.5,1017.22,0,0,0,0,0.029602
2020/04/07 01:30:00.001,n,260,1.8,1.08,2.52,20.5,66.5,1017.22,0,0,0,0,0.031357
2020/04/07 01:31:00.000,n,235,2.16,1.44,3.24,20.4,66.6,1017.22,0,0,0,0,0.030479
2020/04/07 01:32:00.000,n,106,1.44,0.72,2.16,20.4,66.800004,1017.22,0,0,0,0,0.033073
2020/04/07 01:33:00.000,n,171,2.88,2.16,3.6,20.4,66.699996,1017.12,0,0,0,0,0.029602
2020/04/07 01:34:00.006,n,261,3.24,2.52,3.24,20.4,66.699996,1017.12,0,0,0,0,0.031357
2020/04/07 01:35:00.004,n,164,0.72,0,1.44,20.4,67.1,1017.12,0,0,0,0,0.035667
2020/04/07 01:36:00.000,n,75,1.44,0.36,2.16,20.4,66.699996,1017.12,0,0,0,0,0.031357
2020/04/07 01:37:00.000,n,237,2.16,0.72,3.24,20.4,66.9,1017.12,0,0,0,0,0.029602
2020/04/07 01:38:00.011,n,179,1.44,0,2.88,20.4,67.4,1017.12,0,0,0,0,0.029602
2020/04/07 01:39:00.009,n,306,2.88,1.8,3.96,20.4,67.5,1017.12,0,0,0,0,0.025253
2020/04/07 01:40:00.000,n,215,5.4,5.04,5.76,20.4,67.4,1017.12,0,0,0,0,0.032234
2020/04/07 01:41:00.002,n,277,0.72,0.36,1.08,20.4,67.2,1017.12,0,0,0,0,0.027008
2020/04/07 01:42:00.000,n,261,3.24,2.88,3.6,20.4,67.7,1017.12,0,0,0,0,0.031357
2020/04/07 01:43:00.000,n,281,2.16,1.44,3.24,20.4,67.6,1017.12,0,0,0,0,0.033951
2020/04/07 01:44:00.000,n,208,1.44,1.08,1.8,20.4,67.4,1017.12,0,0,0,0,0.027008
2020/04/07 01:45:00.007,n,225,2.52,2.16,2.88,20.4,67.2,1017.12,0,0,0,0,0.034828
2020/04/07 01:46:00.004,n,5,0.72,0.36,1.08,20.4,68.2,1017.12,0,0,0,0,0.030479
2020/04/07 01:47:00.001,n,67,1.8,1.08,2.52,20.4,68.1,1017.12,0,0,0,0,0.027008
2020/04/07 01:48:00.015,n,276,0.72,0.36,1.44,20.4,67.8,1017.12,0,0,0,0,0.027885
2020/04/07 01:49:00.000,n,26,0.72,0.36,1.08,20.4,67.5,1017.12,0,0,0,0,0.032234
2020/04/07 01:50:00.000,n,283,1.44,0.72,2.16,20.4,67.4,1017.12,0,0,0,0,0.033951
2020/04/07 01:51:00.000,n,259,1.8,1.44,2.16,20.4,67.4,1017.12,0,0,0,0,0.031357
2020/04/07 01:52:00.003,n,241,3.24,2.52,3.6,20.4,67.8,1017.02,0,0,0,0,0.031357
2020/04/07 01:53:00.001,n,167,2.16,1.8,2.16,20.4,67.7,1017.02,0,0,0,0,0.029602
2020/04/07 01:54:00.000,n,245,3.96,3.24,5.04,20.4,67.4,1017.02,0,0,0,0,0.033951
2020/04/07 01:55:00.010,n,266,3.6,1.44,4.32,20.4,67.5,1017.02,0,0,0,0,0.029602
2020/04/07 01:56:00.008,n,258,0.72,0,1.08,20.4,67.9,1017.02,0,0,0,0,0.028725
2020/04/07 01:57:00.005,n,22,0.72,0.72,1.08,20.4,68,1017.02,0,0,0,0,0.025253
2020/04/07 01:58:00.000,n,321,2.88,1.08,3.6,20.4,68.5,1016.92,0,0,0,0,0.027008
2020/04/07 01:59:00.000,n,169,3.24,2.52,3.6,20.4,67.7,1016.92,0,0,0,0,0.026131
2020/04/07 02:00:00.000,n,237,0.72,0.36,1.08,20.3,67.4,1016.92,0,0,0,0,0.024376
2020/04/07 02:01:00.000,n,194,2.52,1.8,2.88,20.3,67.5,1016.92,0,0,0,0,0.026131
2020/04/07 02:02:00.008,n,4,0.72,0,1.44,20.3,67.8,1016.92,0,0,0,0,0.030479
2020/04/07 02:03:00.005,n,296,1.44,0.72,2.16,20.3,67.7,1016.92,0,0,0,0,0.027008
2020/04/07 02:04:00.002,n,334,0.72,0.36,0.72,20.3,67.8,1016.82,0,0,0,0,0.029602
2020/04/07 02:05:00.000,n,258,4.32,3.24,5.4,20.3,67.5,1016.82,0,0,0,0,0.025253
2020/04/07 02:06:00.012,n,252,2.88,2.52,3.24,20.3,67.8,1016.82,0,0,0,0,0.028725
2020/04/07 02:07:00.000,n,270,1.08,0.36,1.8,20.3,67.9,1016.82,0,0,0,0,0.028725
2020/04/07 02:08:00.000,n,172,2.52,0.72,3.96,20.3,67.6,1016.82,0,0,0,0,0.026131
2020/04/07 02:09:00.004,n,118,4.32,3.6,4.68,20.3,67.4,1016.72,0,0,0,0,0.030479
2020/04/07 02:10:00.000,n,176,8.64,7.56,10.440002,20.3,67.4,1016.72,0,0,0,0,0.028725
2020/04/07 02:11:00.000,n,215,2.16,1.44,2.88,20.2,67.5,1016.72,0,0,0,0,0.028725
2020/04/07 02:12:00.000,n,244,2.88,2.16,3.6,20.2,67.6,1016.72,0,0,0,0,0.027008
2020/04/07 02:13:00.008,n,280,1.8,0.36,3.24,20.2,67.9,1016.72,0,0,0,0,0.029602
2020/04/07 02:14:00.006,n,242,1.44,1.08,1.44,20.2,68,1016.72,0,0,0,0,0.029602
2020/04/07 02:15:00.004,n,147,3.24,2.88,3.96,20.2,67.8,1016.72,0,0,0,0,0.027008
2020/04/07 02:16:00.002,n,141,2.52,1.08,3.6,20.2,67.8,1016.62,0,0,0,0,0.029602
2020/04/07 02:17:00.000,n,152,2.52,0.72,3.6,20.2,67.8,1016.62,0,0,0,0,0.030479
2020/04/07 02:18:00.000,n,209,2.52,2.52,2.88,20.2,67.9,1016.62,0,0,0,0,0.029602
2020/04/07 02:19:00.000,n,174,1.08,0.72,1.8,20.2,67.8,1016.72,0,0,0,0,0.027885
2020/04/07 02:20:00.006,n,157,5.4,5.04,6.48,20.1,67.5,1016.72,0,0,0,0,0.033951
2020/04/07 02:21:00.003,n,191,2.52,1.8,2.88,20.1,67.8,1016.72,0,0,0,0,0.033951
2020/04/07 02:22:00.000,n,257,2.52,1.8,3.24,20.1,68.5,1016.72,0,0,0,0,0.027008
2020/04/07 02:23:00.013,n,334,1.44,0.36,2.52,20.1,67.9,1016.72,0,0,0,0,0.027008
2020/04/07 02:24:00.010,n,133,1.44,0.36,2.16,20.1,68,1016.72,0,0,0,0,0.030479
2020/04/07 02:25:00.000,n,275,3.6,3.24,3.96,20.1,67.9,1016.72,0,0,0,0,0.029602
2020/04/07 02:26:00.000,n,131,2.88,1.8,4.68,20.1,67.9,1016.72,0,0,0,0,0.030479
2020/04/07 02:27:00.000,n,278,3.24,2.52,3.6,20.1,68,1016.72,0,0,0,0,0.031357
2020/04/07 02:28:00.000,n,162,1.44,1.44,2.16,20.1,68,1016.62,0,0,0,0,0.028725
2020/04/07 02:29:00.000,n,335,1.08,0.72,1.8,20.1,68.3,1016.72,0,0,0,0,0.025253
2020/04/07 02:30:00.008,n,243,2.88,2.52,3.6,20.1,68.1,1016.62,0,0,0,0,0.027008
2020/04/07 02:31:00.006,n,193,0.72,0.36,1.44,20.1,67.9,1016.62,0,0,0,0,0.033073
2020/04/07 02:32:00.002,n,288,1.44,1.08,1.8,20.1,68.3,1016.62,0,0,0,0,0.026131
2020/04/07 02:33:00.001,n,276,5.04,5.04,5.76,20.1,68.2,1016.62,0,0,0,0,0.027008
2020/04/07 02:34:00.000,n,221,3.24,2.52,4.32,20.1,68,1016.62,0,0,0,0,0.025253
2020/04/07 02:35:00.000,n,222,3.96,3.24,4.32,20.1,68,1016.62,0,0,0,0,0.029602
2020/04/07 02:36:00.000,n,192,4.68,3.96,5.04,20.1,67.9,1016.62,0,0,0,0,0.029602
2020/04/07 02:37:00.006,n,295,1.8,0.36,2.88,20.1,67.8,1016.62,0,0,0,0,0.026131
2020/04/07 02:38:00.004,n,149,0.72,0.36,1.08,20.1,68.6,1016.62,0,0,0,0,0.024376
2020/04/07 02:39:00.001,n,191,5.4,5.04,6.12,20.1,67.8,1016.62,0,0,0,0,0.020905
2020/04/07 02:40:00.000,n,230,0.72,0.36,1.44,20.1,67.9,1016.62,0,0,0,0,0.026131
2020/04/07 02:41:00.011,n,103,1.8,1.44,2.52,20.1,67.8,1016.62,0,0,0,0,0.026131
2020/04/07 02:42:00.009,n,214,4.32,3.24,4.68,20.1,67.8,1016.62,0,0,0,0,0.027885
2020/04/07 02:43:00.000,n,181,6.84,6.12,9.72,20.1,67.5,1016.62,0,0,0,0,0.028725
2020/04/07 02:44:00.002,n,195,5.76,3.96,7.56,20.1,67.6,1016.62,0,0,0,0,0.029602
2020/04/07 02:45:00.000,n,206,2.52,1.08,4.32,20.1,67.7,1016.62,0,0,0,0,0.027885
2020/04/07 02:46:00.000,n,181,4.32,4.32,4.68,20.1,67.7,1016.62,0,0,0,0,0.027885
2020/04/07 02:47:00.000,n,210,3.96,3.6,4.68,20.1,67.8,1016.62,0,0,0,0,0.025253
2020/04/07 02:48:00.007,n,173,5.4,4.68,6.12,20.1,67.9,1016.62,0,0,0,0,0.029602
2020/04/07 02:49:00.006,n,172,2.52,2.52,2.52,20.1,68.1,1016.62,0,0,0,0,0.026131
2020/04/07 02:50:00.002,n,168,3.24,2.52,4.68,20.1,68.1,1016.62,0,0,0,0,0.023499
2020/04/07 02:51:00.000,n,180,7.56,7.56,7.92,20.1,68.1,1016.62,0,0,0,0,0.020905
2020/04/07 02:52:00.000,n,188,7.2,6.84,7.92,20,68.2,1016.62,0,0,0,0,0.026131
2020/04/07 02:53:00.000,n,280,2.88,2.52,3.96,20,68.3,1016.62,0,0,0,0,0.020905
2020/04/07 02:54:00.000,n,229,2.88,1.8,4.68,20,68.4,1016.62,0,0,0,0,0.025253
2020/04/07 02:55:00.003,n,170,4.32,2.88,5.76,20,68.3,1016.62,0,0,0,0,0.022659
2020/04/07 02:56:00.001,n,104,2.16,0.72,3.96,20,68.3,1016.62,0,0,0,0,0.023499
2020/04/07 02:57:00.000,n,173,7.2,5.76,7.56,20,68.3,1016.62,0,0,0,0,0.022659
2020/04/07 02:58:00.012,n,171,5.4,5.04,5.76,19.9,68.4,1016.62,0,0,0,0,0.022659
2020/04/07 02:59:00.009,n,192,3.6,2.88,5.04,19.9,68.4,1016.62,0,0,0,0,0.026131
2020/04/07 03:00:00.006,n,259,1.8,1.44,2.16,19.9,68.6,1016.62,0,0,0,0,0.022659
2020/04/07 03:01:00.000,n,173,2.52,1.44,3.24,19.9,68.5,1016.62,0,0,0,0,0.022659
2020/04/07 03:02:00.000,n,167,3.96,2.52,5.04,19.9,68.6,1016.62,0,0,0,0,0.026131
2020/04/07 03:03:00.000,n,148,0.72,0.36,1.08,19.9,68.7,1016.62,0,0,0,0,0.024376
2020/04/07 03:04:00.000,n,203,6.48,2.88,8.28,19.9,68.7,1016.62,0,0,0,0,0.020027
2020/04/07 03:05:00.008,n,151,2.16,0.72,3.96,19.9,68.7,1016.62,0,0,0,0,0.01915
2020/04/07 03:06:00.005,n,82,1.08,0.36,2.16,19.9,68.9,1016.62,0,0,0,0,0.022659
2020/04/07 03:07:00.002,n,150,3.24,1.08,4.32,19.9,69,1016.62,0,0,0,0,0.024376
2020/04/07 03:08:00.000,n,210,2.88,2.52,3.6,19.9,69,1016.62,0,0,0,0,0.028725
2020/04/07 03:09:00.012,n,149,2.88,2.52,3.96,19.9,68.9,1016.62,0,0,0,0,0.030479
2020/04/07 03:10:00.000,n,166,2.52,2.16,2.88,19.8,69,1016.62,0,0,0,0,0.032196
2020/04/07 03:11:00.000,n,188,3.24,2.88,3.24,19.8,69,1016.62,0,0,0,0,0.032196
2020/04/07 03:12:00.003,n,144,4.32,2.88,5.76,19.8,69,1016.62,0,0,0,0,0.029602
2020/04/07 03:13:00.000,n,230,1.8,1.44,2.16,19.8,69.1,1016.62,0,0,0,0,0.030479
2020/04/07 03:14:00.000,n,114,0.36,0,0.72,19.8,69.4,1016.62,0,0,0,0,0.032196
2020/04/07 03:15:00.010,n,202,2.88,2.52,3.24,19.8,69.1,1016.62,0,0,0,0,0.031319
2020/04/07 03:16:00.007,n,167,3.6,3.24,4.32,19.8,69.2,1016.62,0,0,0,0,0.029602
2020/04/07 03:17:00.004,n,141,6.48,5.4,7.56,19.8,69.1,1016.62,0,0,0,0,0.025253
2020/04/07 03:18:00.001,n,209,5.76,4.68,6.12,19.8,69.1,1016.62,0,0,0,0,0.025253
2020/04/07 03:19:00.000,n,263,2.88,2.52,3.24,19.8,69.3,1016.62,0,0,0,0,0.02697
2020/04/07 03:20:00.000,n,245,2.52,2.16,2.88,19.8,69.8,1016.62,0,0,0,0,0.029602
2020/04/07 03:21:00.000,n,297,0.72,0.36,1.44,19.8,70.3,1016.62,0,0,0,0,0.029602
2020/04/07 03:22:00.006,n,266,3.96,3.6,4.32,19.8,69.7,1016.62,0,0,0,0,0.029602
2020/04/07 03:23:00.003,n,268,3.6,2.88,4.68,19.8,70,1016.62,0,0,0,0,0.029602
2020/04/07 03:24:00.000,n,242,3.96,3.6,4.32,19.8,69.9,1016.62,0,0,0,0,0.023499
2020/04/07 03:25:00.000,n,293,2.88,1.8,5.04,19.8,70,1016.62,0,0,0,0,0.02697
2020/04/07 03:26:00.009,n,320,1.08,0,2.16,19.8,70.1,1016.62,0,0,0,0,0.031319
2020/04/07 03:27:00.008,n,78,1.08,0.36,1.44,19.8,69.9,1016.62,0,0,0,0,0.032196
2020/04/07 03:28:00.000,n,340,3.24,2.16,5.4,19.8,70.8,1016.62,0,0,0,0,0.032196
2020/04/07 03:29:00.001,n,256,3.24,2.16,3.6,19.8,70,1016.62,0,0,0,0,0.023499
2020/04/07 03:30:00.000,n,270,6.12,5.4,6.84,19.8,69.8,1016.62,0,0,0,0,0.02697
2020/04/07 03:31:00.000,n,233,2.52,1.8,3.24,19.8,69.7,1016.62,0,0,0,0,0.021744
2020/04/07 03:32:00.000,n,207,0.72,0.36,2.52,19.7,69.8,1016.62,0,0,0,0,0.02697
2020/04/07 03:33:00.006,n,143,3.24,1.44,5.04,19.7,69.9,1016.62,0,0,0,0,0.02697
2020/04/07 03:34:00.003,n,229,3.24,2.88,3.24,19.7,69.8,1016.62,0,0,0,0,0.024376
2020/04/07 03:35:00.001,n,263,3.96,3.24,4.68,19.7,70.1,1016.62,0,0,0,0,0.025253
2020/04/07 03:36:00.015,n,255,4.68,4.32,4.68,19.7,71,1016.62,0,0,0,0,0.023499
2020/04/07 03:37:00.000,n,207,0.36,0.36,0.72,19.7,70.5,1016.62,0,0,0,0,0.025253
2020/04/07 03:38:00.000,n,154,2.88,2.52,2.88,19.7,70.2,1016.62,0,0,0,0,0.022659
2020/04/07 03:39:00.000,n,286,2.16,1.08,3.24,19.7,70.5,1016.62,0,0,0,0,0.025253
2020/04/07 03:40:00.000,n,269,3.24,3.24,3.6,19.7,70.4,1016.62,0,0,0,0,0.033073
2020/04/07 03:41:00.000,n,238,0.72,0.36,1.08,19.7,70.5,1016.62,0,0,0,0,0.033073
2020/04/07 03:42:00.000,n,266,3.6,2.52,4.68,19.7,70.5,1016.62,0,0,0,0,0.032196
2020/04/07 03:43:00.009,n,278,3.6,3.24,4.68,19.7,70.5,1016.62,0,0,0,0,0.030479
2020/04/07 03:44:00.006,n,15,1.44,0.72,2.52,19.6,71,1016.62,0,0,0,0,0.033073
2020/04/07 03:45:00.002,n,323,1.08,0.36,1.44,19.6,71.4,1016.62,0,0,0,0,0.034828
2020/04/07 03:46:00.000,n,33,1.8,1.44,2.16,19.6,70.9,1016.62,0,0,0,0,0.033073
2020/04/07 03:47:00.000,n,179,4.68,4.68,5.76,19.6,70.5,1016.62,0,0,0,0,0.028687
2020/04/07 03:48:00.000,n,278,1.8,1.44,1.8,19.6,70.6,1016.72,0,0,0,0,0.029602
2020/04/07 03:49:00.007,n,125,0.72,0.36,1.44,19.6,70.7,1016.72,0,0,0,0,0.032196
2020/04/07 03:50:00.004,n,256,1.8,1.08,2.52,19.6,70.7,1016.72,0,0,0,0,0.029602
2020/04/07 03:51:00.001,n,266,3.24,2.88,3.6,19.6,70.7,1016.72,0,0,0,0,0.026093
2020/04/07 03:52:00.000,n,264,1.44,1.44,1.8,19.6,70.9,1016.62,0,0,0,0,0.027847
2020/04/07 03:53:00.011,n,181,2.52,1.44,2.88,19.6,70.8,1016.62,0,0,0,0,0.026093
2020/04/07 03:54:00.008,n,292,0.72,0.36,1.08,19.6,70.8,1016.62,0,0,0,0,0.023499
2020/04/07 03:55:00.000,n,285,2.16,1.8,2.88,19.6,72.1,1016.62,0,0,0,0,0.024376
2020/04/07 03:56:00.002,n,232,2.52,2.16,3.24,19.6,71.6,1016.72,0,0,0,0,0.020905
2020/04/07 03:57:00.000,n,278,1.08,0.72,1.8,19.6,71.1,1016.72,0,0,0,0,0.023499
2020/04/07 03:58:00.000,n,285,2.52,2.16,3.6,19.6,71.3,1016.72,0,0,0,0,0.021744
2020/04/07 03:59:00.000,n,259,3.96,3.6,5.04,19.5,71.3,1016.72,0,0,0,0,0.021744
2020/04/07 04:00:00.008,n,257,9.36,8.64,10.08,19.5,71,1016.72,0,0,0,0,0.022621
2020/04/07 04:01:00.005,n,253,2.16,2.16,2.52,19.5,71,1016.72,0,0,0,0,0.020905
2020/04/07 04:02:00.002,n,273,4.32,3.24,5.04,19.5,71.2,1016.72,0,0,0,0,0.024376
2020/04/07 04:03:00.016,n,261,3.6,2.88,4.68,19.5,72,1016.72,0,0,0,0,0.022621
2020/04/07 04:04:00.000,n,216,3.6,2.88,4.68,19.5,71.5,1016.82,0,0,0,0,0.022621
2020/04/07 04:05:00.000,n,264,2.88,2.52,3.24,19.5,71.3,1016.82,0,0,0,0,0.024376
2020/04/07 04:06:00.000,n,265,3.24,2.88,3.6,19.5,72,1016.82,0,0,0,0,0.024376
2020/04/07 04:07:00.004,n,271,1.8,1.44,2.52,19.5,71.6,1016.82,0,0,0,0,0.020905
2020/04/07 04:08:00.002,n,113,0.36,0.36,0.72,19.5,71.6,1016.82,0,0,0,0,0.022621
2020/04/07 04:09:00.000,n,271,3.6,2.88,4.32,19.5,72.5,1016.82,0,0,0,0,0.027008
2020/04/07 04:10:00.000,n,226,2.52,2.16,2.88,19.5,71.7,1016.82,0,0,0,0,0.02964
2020/04/07 04:11:00.010,n,289,4.68,3.96,5.4,19.4,71.8,1016.82,0,0,0,0,0.032234
2020/04/07 04:12:00.007,n,227,2.16,1.8,2.52,19.4,71.9,1016.82,0,0,0,0,0.031357
2020/04/07 04:13:00.000,n,259,2.88,2.52,3.6,19.4,71.8,1016.82,0,0,0,0,0.030479
2020/04/07 04:14:00.001,n,281,2.88,1.8,3.96,19.4,71.8,1016.82,0,0,0,0,0.030479
2020/04/07 04:15:00.000,n,239,3.6,3.24,3.6,19.4,71.8,1016.82,0,0,0,0,0.02964
2020/04/07 04:16:00.000,n,239,5.04,4.68,5.4,19.4,71.8,1016.82,0,0,0,0,0.032234
2020/04/07 04:17:00.008,n,257,4.68,3.96,5.04,19.4,71.9,1016.82,0,0,0,0,0.030479
2020/04/07 04:18:00.005,n,271,2.88,0.72,4.32,19.4,71.8,1016.82,0,0,0,0,0.033951
2020/04/07 04:19:00.002,n,272,2.88,2.52,3.96,19.4,72.9,1016.82,0,0,0,0,0.02964
2020/04/07 04:20:00.000,n,248,2.16,0.72,2.88,19.4,72.4,1016.82,0,0,0,0,0.026131
2020/04/07 04:21:00.013,n,268,1.8,1.8,2.16,19.4,72.1,1016.82,0,0,0,0,0.028725
2020/04/07 04:22:00.000,n,208,3.6,3.24,4.32,19.4,72.1,1016.82,0,0,0,0,0.026131
2020/04/07 04:23:00.000,n,239,2.88,2.88,3.24,19.4,72,1016.82,0,0,0,0,0.026131
2020/04/07 04:24:00.004,n,263,2.88,2.88,3.24,19.4,72.1,1016.82,0,0,0,0,0.026131
2020/04/07 04:25:00.001,n,284,1.8,1.08,2.52,19.4,72.4,1016.82,0,0,0,0,0.022659
2020/04/07 04:26:00.000,n,263,2.52,1.8,3.24,19.4,72.6,1016.82,0,0,0,0,0.022659
2020/04/07 04:27:00.000,n,297,2.52,2.16,2.88,19.4,72.9,1016.82,0,0,0,0,0.021782
2020/04/07 04:28:00.009,n,271,3.6,2.88,3.96,19.4,72.4,1016.82,0,0,0,0,0.023499
2020/04/07 04:29:00.006,n,261,1.8,1.44,2.16,19.4,72.8,1016.82,0,0,0,0,0.023499
2020/04/07 04:30:00.004,n,253,6.84,6.12,7.56,19.4,72.6,1016.82,0,0,0,0,0.021782
2020/04/07 04:31:00.001,n,259,1.08,0.72,1.44,19.4,72.6,1016.82,0,0,0,0,0.020065
2020/04/07 04:32:00.000,n,283,3.24,2.52,4.68,19.3,72.7,1016.82,0,0,0,0,0.01915
2020/04/07 04:33:00.000,n,240,2.52,2.16,2.88,19.3,72.8,1016.92,0,0,0,0,0.022659
2020/04/07 04:34:00.000,n,281,3.24,1.8,3.96,19.3,73.6,1016.92,0,0,0,0,0.023499
2020/04/07 04:35:00.005,n,283,1.8,1.08,2.52,19.3,73.1,1016.92,0,0,0,0,0.015678
2020/04/07 04:36:00.003,n,261,3.24,2.88,3.96,19.3,73.1,1016.92,0,0,0,0,0.018272
2020/04/07 04:37:00.000,n,287,2.16,1.8,2.52,19.3,73.2,1016.92,0,0,0,0,0.017433
2020/04/07 04:38:00.013,n,266,3.6,3.6,3.96,19.3,73.2,1016.92,0,0,0,0,0.016556
2020/04/07 04:39:00.010,n,43,1.08,0.36,1.44,19.3,73.7,1016.92,0,0,0,0,0.01915
2020/04/07 04:40:00.000,n,246,1.8,1.08,2.16,19.3,73.3,1016.92,0,0,0,0,0.01915
2020/04/07 04:41:00.003,n,257,5.04,4.32,5.04,19.2,73.3,1016.92,0,0,0,0,0.032196
2020/04/07 04:42:00.000,n,252,4.68,3.96,5.76,19.2,73.3,1016.92,0,0,0,0,0.037422
2020/04/07 04:43:00.000,n,282,3.6,2.52,5.4,19.2,73.4,1017.02,0,0,0,0,0.033073
2020/04/07 04:44:00.009,n,267,3.6,3.24,3.96,19.2,73.7,1016.92,0,0,0,0,0.031319
2020/04/07 04:45:00.005,n,278,2.88,2.16,3.24,19.2,73.6,1017.02,0,0,0,0,0.029564
2020/04/07 04:46:00.002,n,274,4.68,2.88,5.76,19.2,73.7,1017.02,0,0,0,0,0.031319
2020/04/07 04:47:00.000,n,272,2.16,2.16,2.52,19.1,73.7,1017.02,0,0,0,0,0.030479
2020/04/07 04:48:00.013,n,279,3.96,3.24,4.32,19.1,74.2,1017.02,0,0,0,0,0.032196
2020/04/07 04:49:00.000,n,290,1.08,1.08,1.44,19.1,74,1017.02,0,0,0,0,0.033073
2020/04/07 04:50:00.000,n,275,3.6,2.88,3.96,19.1,74.1,1017.02,0,0,0,0,0.029564
2020/04/07 04:51:00.005,n,354,2.52,1.08,3.24,19.1,74.5,1017.02,0,0,0,0,0.032196
2020/04/07 04:52:00.002,n,286,2.88,2.16,4.32,19.1,75.8,1017.12,0,0,0,0,0.029564
2020/04/07 04:53:00.000,n,49,0.36,0.36,0.72,19.2,75.1,1017.12,0,0,0,0,0.029564
2020/04/07 04:54:00.000,n,247,2.52,2.16,2.88,19.2,74.8,1017.12,0,0,0,0,0.028725